Wind_Speed
23 23 23 23 24 24 24 25 26 27 27 28 29 30 31 31 32 33 34 34 35 36 36 37 37 38 38 38 38 38 38 37 37 36 35 34 33 32 31 30 29 27 26
25 25 25 26 26 26 26 27 28 28 29 30 31 32 33 33 34 35 36 37 37 38 39 39 40 40 40 40 40 40 40 40 39 39 38 37 36 35 34 32 31 30 29
27 27 27 28 28 28 29 29 30 31 32 33 34 35 35 36 37 37 38 38 39 40 41 41 42 42 42 42 42 42 42 42 42 42 41 40 39 38 37 36 34 33 32
30 30 30 30 31 31 31 32 33 33 34 35 36 37 37 38 39 40 40 41 41 42 43 43 43 44 44 44 44 44 44 44 44 43 43 43 42 41 39 38 37 36 35
32 32 32 32 33 33 33 34 35 36 37 38 39 40 40 41 41 42 42 43 43 44 44 45 45 45 45 45 45 45 45 45 45 45 45 44 44 43 42 41 40 39 38
34 34 34 34 35 35 36 37 38 39 40 41 42 42 42 43 43 43 44 44 45 45 46 46 47 47 46 46 46 46 46 46 46 46 46 46 46 46 45 44 43 42 41
37 36 36 36 37 38 38 39 40 41 42 43 44 43 43 43 44 44 45 45 46 47 48 48 48 47 47 47 47 47 48 48 48 48 47 47 48 47 47 45 45 44 43
38 38 38 39 39 40 41 41 42 43 43 45 45 45 44 43 43 45 45 46 47 47 48 48 48 48 48 48 49 49 49 49 49 50 50 50 50 49 48 47 46 46 45
40 40 40 41 42 42 43 43 44 45 45 45 46 46 46 45 44 44 45 46 46 47 47 48 48 49 49 50 50 50 50 51 51 51 51 51 51 50 50 49 48 47 47
42 42 42 43 43 44 44 45 46 46 46 46 46 46 47 47 46 45 44 45 45 46 47 48 49 49 50 51 51 51 51 51 50 51 51 51 50 50 50 50 48 48 47
43 43 43 44 44 45 45 46 46 47 46 46 46 46 46 47 47 47 45 45 45 46 48 49 49 49 50 51 52 51 51 50 50 49 49 50 50 50 50 50 50 48 47
44 44 45 45 45 46 46 47 47 46 46 46 46 46 46 46 45 46 45 45 45 46 48 48 48 48 49 50 50 49 48 49 48 48 48 48 47 47 48 47 47 46 46
45 46 46 47 47 47 47 47 46 46 46 46 46 46 45 45 45 45 45 45 45 46 46 47 47 47 47 48 47 46 46 45 44 45 45 43 44 44 44 44 44 43 43
47 47 47 47 47 46 46 46 46 46 45 45 45 45 44 44 44 44 45 45 45 45 44 44 44 45 45 45 43 42 41 40 41 40 39 40 41 41 42 41 40 40 41
47 47 47 47 46 47 46 45 45 45 44 44 43 43 43 43 43 44 44 44 44 43 41 41 42 42 42 41 40 39 38 37 36 36 37 38 39 39 40 39 39 40 40
46 46 47 46 46 45 44 44 44 43 43 42 42 42 42 42 42 43 43 43 42 41 40 40 40 39 38 38 37 36 36 35 33 33 34 34 34 34 35 36 38 39 40
46 46 45 45 44 44 43 43 42 42 41 41 41 41 41 41 41 41 41 40 40 40 39 39 38 38 36 35 34 34 33 32 31 31 31 31 32 33 33 35 36 37 39
45 44 43 42 42 42 42 41 40 39 39 39 39 39 39 40 40 40 39 39 39 39 38 37 37 36 34 33 33 33 32 31 30 30 31 32 32 33 34 36 37 38 39
43 42 42 41 41 41 40 39 38 38 38 38 38 38 38 38 38 38 38 37 37 37 37 36 35 34 33 33 33 33 33 32 32 32 33 34 35 35 35 36 37 38 39
41 40 40 40 39 38 38 37 37 36 36 36 36 36 37 37 37 37 36 36 36 36 36 35 35 34 34 34 34 34 34 34 34 35 35 36 36 37 38 39 40 41 42
39 38 38 37 36 36 36 35 35 35 35 35 35 35 36 35 35 35 35 35 35 35 35 35 35 35 35 35 35 35 35 36 36 37 38 38 39 40 41 42 43 43 45
36 36 36 35 34 34 34 34 34 33 33 33 34 34 34 34 34 34 34 34 34 35 35 35 35 35 36 36 36 37 38 38 39 39 40 41 42 43 43 44 44 45 46
34 34 33 33 33 32 32 32 32 32 32 32 33 33 33 33 33 33 34 34 35 35 35 35 36 37 37 37 38 39 39 40 41 41 42 43 44 44 45 45 45 45 46
31 31 31 31 30 30 30 30 30 30 31 32 32 32 32 33 33 33 34 35 35 36 36 36 37 38 38 39 40 41 41 42 43 43 44 45 46 46 46 45 45 45 45
29 29 29 28 28 28 29 29 29 29 30 31 32 32 32 33 33 34 34 35 36 36 37 38 38 39 40 41 41 42 43 44 45 45 45 46 46 46 46 46 46 45 45
27 27 27 27 27 27 28 28 29 29 30 31 31 32 32 33 33 34 35 36 36 37 38 39 40 40 41 42 43 44 45 46 46 46 46 46 47 47 47 47 47 46 45
Wind_Direction
286 289 292 295 298 300 301 302 302 303 303 302 302 301 301 301 301 301 300 300 299 298 297 296 295 294 293 292 290 289 288 287 286 284 283 282 280 279 278 277 275 274 273
284 287 290 293 296 298 299 300 301 301 301 301 301 300 300 301 300 300 300 299 298 298 297 296 295 294 293 292 291 290 288 286 285 284 283 282 280 279 277 276 275 274 272
282 286 289 292 294 296 297 298 299 299 299 299 299 299 299 299 299 299 299 299 298 298 297 296 296 295 294 292 291 289 288 286 285 284 282 281 280 278 277 276 275 274 272
280 283 286 289 292 294 295 296 297 297 297 297 297 298 298 298 299 299 299 298 298 298 297 297 296 295 294 293 291 290 288 286 285 283 282 280 279 277 276 275 274 273 272
278 281 284 287 289 291 292 293 294 295 295 296 296 297 298 298 299 299 299 298 298 298 298 297 296 295 294 292 291 290 288 287 284 283 281 280 279 277 275 274 273 272 271
277 279 282 285 287 288 290 291 292 293 293 294 295 296 297 298 299 299 298 298 298 298 298 297 296 295 294 293 292 290 288 286 284 283 281 279 278 277 275 273 272 270 269
275 277 280 283 284 286 288 289 290 292 293 293 294 295 296 297 298 297 298 298 298 298 298 297 296 296 295 294 293 291 289 287 284 282 280 278 277 276 273 271 271 269 268
274 276 279 281 283 285 287 288 289 291 292 292 293 294 294 295 296 297 298 299 299 298 298 298 298 297 295 295 293 292 290 287 284 281 279 277 274 275 273 270 270 268 268
273 276 278 280 282 284 286 287 289 290 291 292 293 294 295 295 295 296 298 298 298 298 298 298 298 297 296 296 294 292 289 287 284 281 278 277 275 273 271 269 269 268 266
272 274 277 279 281 283 285 286 288 289 291 292 293 294 296 297 297 297 298 298 298 298 298 299 298 297 296 296 295 292 289 287 284 280 278 276 274 273 271 269 268 267 265
272 274 276 278 280 283 284 286 288 289 291 292 293 294 296 297 298 299 299 299 299 299 299 299 299 298 298 296 296 293 289 285 282 280 279 276 273 272 270 268 268 266 263
273 275 277 279 281 283 285 286 288 289 291 292 293 295 296 297 298 299 299 300 300 300 300 300 299 299 299 299 298 296 291 287 282 280 277 275 274 272 268 268 267 266 264
272 275 277 279 281 283 285 286 288 289 290 292 293 295 296 297 298 299 300 301 301 302 301 301 300 299 300 301 300 298 295 290 286 282 277 274 273 271 270 267 267 267 266
272 274 277 279 281 283 285 286 288 289 290 292 293 294 295 297 298 299 300 301 302 302 302 302 302 302 301 303 303 301 298 292 289 284 279 274 274 271 270 270 268 268 268
272 274 276 278 280 283 284 286 287 289 290 292 293 294 295 297 297 299 300 301 303 303 303 303 303 304 304 304 305 304 301 297 293 289 282 279 278 276 273 272 271 271 269
273 275 277 279 281 283 284 286 287 289 290 291 293 294 295 296 297 299 301 302 303 304 304 305 305 306 306 306 306 306 305 302 297 293 288 285 284 280 276 274 273 272 270
274 276 277 279 281 283 285 286 287 289 290 291 292 293 294 296 298 299 301 302 303 304 305 306 306 307 306 306 307 306 306 306 303 299 294 289 286 283 279 278 276 274 273
273 276 278 279 281 283 285 286 287 288 289 291 292 293 295 297 298 299 301 302 303 304 305 306 307 306 307 306 306 308 307 306 304 301 298 294 291 289 286 282 281 279 276
274 276 277 280 281 283 284 285 286 288 289 290 291 293 295 297 298 299 301 302 303 304 305 305 306 307 307 307 307 307 306 305 303 301 300 297 294 292 290 287 284 281 278
274 276 277 279 280 281 283 284 285 287 289 290 292 294 296 297 298 299 300 301 302 304 305 306 306 306 306 306 307 306 305 305 303 302 300 298 296 293 291 288 286 283 281
273 274 276 277 279 280 281 283 285 287 289 291 292 294 296 297 299 300 300 301 302 304 305 305 306 305 305 306 306 306 305 304 303 302 300 298 296 295 292 290 288 286 284
271 273 274 276 277 279 281 283 285 287 289 291 293 294 296 297 299 300 300 302 303 304 305 305 305 305 305 306 306 306 305 304 303 301 300 299 297 296 294 292 290 287 285
270 271 273 274 276 278 281 283 286 288 289 291 293 294 296 297 299 300 301 302 303 304 305 305 305 305 305 305 306 306 305 304 303 302 301 300 298 297 296 294 292 290 287
269 270 272 274 276 278 281 284 286 288 290 292 293 294 296 297 300 301 302 303 303 304 304 305 305 305 306 306 307 306 306 305 304 303 302 301 300 298 297 295 293 291 289
268 270 272 274 276 279 281 284 286 288 290 292 293 294 296 298 300 301 302 303 304 304 305 305 306 306 307 307 307 306 306 305 305 304 303 302 300 300 298 297 294 292 290
269 270 272 274 276 279 281 284 286 289 291 292 294 295 297 299 300 301 302 304 305 305 306 306 307 307 307 308 307 307 306 306 306 305 304 303 301 300 299 297 295 294 292
Height
5865 5864 5864 5863 5863 5862 5861 5860 5858 5857 5855 5853 5851 5850 5848 5846 5844 5841 5839 5836 5834 5832 5829 5827 5825 5823 5821 5819 5817 5815 5814 5812 5811 5810 5809 5808 5807 5807 5806 5805 5805 5804 5804
5860 5859 5859 5858 5858 5857 5856 5855 5853 5851 5850 5848 5846 5844 5842 5840 5837 5835 5832 5830 5827 5825 5822 5820 5818 5815 5813 5811 5809 5808 5806 5805 5803 5802 5801 5801 5800 5799 5799 5798 5798 5798 5798
5854 5854 5854 5853 5852 5851 5850 5849 5847 5846 5844 5842 5840 5837 5835 5833 5831 5828 5825 5823 5820 5817 5815 5812 5810 5807 5805 5803 5801 5799 5797 5796 5795 5794 5793 5792 5791 5791 5791 5790 5790 5791 5791
5849 5849 5848 5847 5846 5845 5844 5843 5841 5839 5837 5835 5833 5831 5828 5826 5823 5821 5818 5815 5812 5809 5806 5804 5801 5799 5796 5794 5792 5790 5788 5787 5785 5784 5783 5782 5782 5782 5782 5782 5782 5782 5783
5843 5842 5842 5841 5840 5839 5837 5836 5834 5832 5831 5828 5826 5824 5821 5818 5816 5813 5810 5806 5803 5801 5798 5795 5792 5789 5787 5784 5782 5780 5779 5777 5775 5774 5773 5772 5772 5771 5771 5771 5772 5772 5773
5836 5836 5835 5834 5833 5832 5830 5829 5827 5825 5823 5821 5818 5816 5814 5811 5808 5805 5801 5798 5795 5791 5788 5785 5782 5779 5777 5774 5772 5770 5768 5766 5764 5763 5762 5761 5761 5760 5760 5760 5761 5761 5762
5828 5828 5828 5827 5826 5825 5823 5821 5819 5817 5815 5812 5810 5808 5806 5803 5800 5796 5792 5789 5786 5782 5779 5775 5772 5769 5766 5764 5761 5759 5757 5755 5753 5751 5750 5749 5748 5748 5748 5748 5749 5750 5751
5821 5820 5820 5819 5818 5817 5815 5813 5811 5809 5807 5804 5801 5799 5798 5797 5791 5787 5783 5780 5776 5772 5769 5765 5762 5758 5755 5753 5750 5747 5745 5743 5741 5739 5737 5736 5736 5735 5735 5735 5736 5737 5738
5813 5812 5812 5811 5809 5808 5807 5804 5802 5800 5798 5795 5791 5789 5787 5786 5784 5781 5776 5771 5766 5762 5758 5755 5751 5747 5744 5741 5738 5735 5732 5729 5727 5725 5724 5723 5722 5722 5722 5723 5723 5724 5726
5804 5804 5803 5802 5801 5799 5798 5795 5793 5790 5788 5786 5782 5779 5776 5774 5772 5771 5768 5762 5757 5753 5748 5744 5740 5736 5732 5729 5725 5722 5718 5716 5713 5711 5709 5708 5708 5708 5708 5709 5710 5711 5713
5795 5795 5794 5793 5791 5790 5788 5786 5783 5781 5778 5775 5773 5770 5766 5763 5760 5758 5757 5753 5748 5743 5738 5733 5729 5725 5720 5716 5712 5708 5704 5701 5698 5696 5695 5694 5694 5694 5694 5695 5696 5697 5699
5785 5785 5784 5783 5782 5780 5778 5776 5774 5771 5768 5765 5763 5760 5757 5754 5750 5747 5745 5742 5738 5733 5728 5722 5718 5713 5708 5703 5698 5694 5690 5687 5684 5682 5681 5680 5679 5680 5681 5682 5683 5684 5686
5776 5775 5774 5773 5772 5770 5768 5766 5764 5761 5758 5756 5753 5750 5746 5743 5740 5737 5734 5731 5727 5723 5717 5712 5706 5701 5697 5691 5686 5681 5677 5674 5671 5669 5668 5668 5667 5667 5668 5670 5671 5672 5673
5766 5765 5764 5763 5761 5760 5758 5756 5754 5751 5748 5746 5743 5740 5736 5733 5730 5726 5723 5720 5716 5712 5707 5702 5696 5691 5686 5681 5675 5670 5666 5662 5660 5657 5656 5656 5655 5656 5657 5659 5660 5661 5662
5756 5755 5754 5753 5751 5750 5748 5746 5743 5741 5738 5736 5733 5730 5727 5723 5720 5716 5713 5709 5706 5702 5698 5692 5687 5681 5676 5671 5666 5661 5656 5653 5650 5648 5646 5645 5645 5645 5646 5647 5648 5649 5650
5745 5744 5743 5742 5741 5739 5737 5735 5733 5731 5728 5726 5723 5720 5717 5714 5710 5707 5703 5699 5695 5691 5687 5682 5677 5672 5667 5662 5657 5653 5649 5645 5642 5639 5638 5637 5636 5636 5636 5636 5637 5637 5638
5734 5734 5733 5732 5730 5729 5727 5725 5723 5721 5718 5716 5713 5710 5707 5704 5701 5697 5693 5689 5685 5681 5677 5672 5667 5663 5658 5654 5649 5645 5641 5637 5634 5632 5630 5629 5628 5627 5626 5626 5626 5626 5626
5724 5723 5722 5721 5720 5719 5717 5715 5713 5711 5709 5707 5704 5701 5698 5695 5691 5688 5684 5680 5676 5672 5668 5663 5658 5654 5650 5646 5642 5638 5634 5631 5627 5625 5622 5620 5619 5618 5616 5615 5614 5614 5614
5713 5713 5712 5711 5710 5709 5707 5705 5704 5702 5700 5697 5695 5692 5689 5686 5682 5679 5675 5671 5667 5663 5659 5654 5650 5646 5642 5638 5634 5630 5626 5623 5620 5617 5614 5612 5610 5608 5606 5605 5603 5602 5601
5703 5703 5702 5701 5700 5699 5698 5696 5695 5693 5691 5688 5686 5683 5680 5677 5673 5670 5666 5662 5658 5654 5650 5646 5642 5638 5634 5630 5626 5622 5618 5615 5612 5608 5605 5602 5600 5597 5595 5593 5591 5589 5587
5693 5693 5693 5692 5691 5690 5689 5687 5686 5684 5682 5679 5677 5674 5671 5668 5664 5661 5657 5653 5650 5646 5642 5638 5633 5629 5625 5621 5617 5613 5610 5606 5603 5599 5596 5593 5589 5586 5583 5580 5577 5575 5573
5684 5684 5683 5683 5682 5681 5680 5679 5677 5675 5673 5671 5668 5665 5663 5659 5656 5652 5649 5645 5641 5637 5633 5629 5625 5621 5617 5613 5608 5604 5600 5596 5593 5590 5585 5581 5578 5574 5570 5567 5563 5560 5558
5675 5675 5674 5674 5673 5673 5671 5670 5668 5667 5665 5662 5660 5657 5654 5651 5647 5644 5640 5637 5633 5629 5625 5621 5617 5612 5608 5604 5599 5595 5590 5586 5582 5577 5573 5568 5564 5560 5556 5552 5549 5545 5542
5666 5666 5666 5666 5665 5664 5663 5662 5660 5658 5656 5654 5652 5649 5646 5642 5639 5636 5632 5628 5624 5620 5616 5612 5608 5603 5598 5593 5589 5584 5579 5574 5570 5565 5560 5556 5550 5546 5542 5538 5534 5531 5527
5658 5658 5658 5657 5657 5656 5655 5654 5652 5650 5648 5646 5643 5640 5637 5634 5631 5627 5624 5620 5616 5611 5607 5602 5598 5593 5588 5583 5578 5573 5568 5563 5558 5552 5547 5542 5537 5532 5527 5523 5519 5516 5512
5650 5650 5650 5650 5649 5648 5647 5646 5644 5642 5640 5638 5635 5632 5629 5626 5622 5618 5615 5611 5606 5602 5597 5592 5588 5583 5577 5572 5567 5561 5556 5550 5545 5539 5534 5528 5523 5518 5513 5508 5504 5500 5497